Francistown, Botswana

7:27 AM CAT on February 24, 2017 (GMT +0200)
Francistown

Weather History for FBFT - May, 2013

Change the Weather History Date:

Thursday, May 16, 2013

  Actual Average Record
Temperature  
Mean Temperature 64 °F -  
Max Temperature 84 °F 75 °F 87 °F (2015)
Min Temperature 45 °F 44 °F 33 °F (1998)
Growing Degree Days 14 (Base 50)    
Moisture  
Dew Point 42 °F    
Average Humidity 44    
Maximum Humidity 76    
Minimum Humidity 17    
Precipitation  
Precipitation 0.00 in - - ()
Sea Level Pressure  
Sea Level Pressure 30.09 in    
Wind  
Wind Speed 3 mph ()    
Max Wind Speed 10 mph    
Max Gust Speed -    
Visibility 6.1 miles    
Events      
Averages and records for this station are not official NWS values.
T = Trace of Precipitation, MM = Missing Value Source: Averaged Metar Reports

Daily Weather History Graph

Daily Weather History Graph

Search for Another Location

Airport or City:

Trip Planner

Search our weather history database for the weather conditions in past years. The results will help you decide how hot, cold, wet, or windy it might be!

Date:

Astronomy

May. 16, 2013 Rise Set
Actual Time 6:33 AM CAT 5:39 PM CAT
Civil Twilight 6:10 AM CAT 6:02 PM CAT
Nautical Twilight 5:43 AM CAT 6:29 PM CAT
Astronomical Twilight 5:16 AM CAT 6:56 PM CAT
Moon 11:20 AM CAT (5/16) 10:59 PM CAT (5/16)
Length of Visible Light 11h 52m
Length of Day
11h 05m
Waxing Crescent, 33% of the Moon is Illuminated
May 16
Waxing Crescent
May 18
First Quarter
May 25
Full
May 31
Last Quarter
Jun 8
New

Hourly Weather History & Observations

Time (CAT) Temp. Windchill Dew Point Humidity Pressure Visibility Wind Dir Wind Speed Gust Speed Precip Events Conditions
12:00 AM 55.4 °F - 41.0 °F 58% 30.12 in - Calm Calm - N/A   Clear
1:00 AM 53.6 °F - 39.2 °F 58% 30.12 in - West 3.5 mph - N/A   Clear
3:00 AM 50.0 °F - 39.2 °F 66% 30.12 in - Variable 2.3 mph - N/A   Clear
4:00 AM 48.2 °F - 41.0 °F 76% 30.09 in - Variable 1.2 mph - N/A   Clear
5:00 AM 48.2 °F - 41.0 °F 76% 30.09 in - Variable 1.2 mph - N/A   Clear
6:00 AM 46.4 °F 45.2 °F 37.4 °F 71% 30.09 in - NNE 3.5 mph - N/A   Clear
7:00 AM 46.4 °F - 37.4 °F 71% 30.12 in - Variable 2.3 mph - N/A   Clear
8:00 AM 54 °F - 42 °F 53%  in 6 mi NNW 1.2 mph - -   Partly Cloudy
8:00 AM 53.6 °F - 42.8 °F 67% 30.12 in - Variable 1.2 mph - N/A   Clear
9:00 AM 66.2 °F - 44.6 °F 46% 30.12 in - NW 5.8 mph - N/A   Clear
10:00 AM 77.0 °F - 46.4 °F 34% 30.15 in 6.2 mi WNW 6.9 mph - N/A   Partly Cloudy
11:00 AM 78.8 °F - 42.8 °F 28% 30.12 in 6.2 mi West 10.4 mph - N/A   Scattered Clouds
12:00 PM 80.6 °F - 42.8 °F 26% 30.09 in 6.2 mi NNW 6.9 mph - N/A   Scattered Clouds
1:00 PM 82.4 °F - 42.8 °F 25% 30.06 in 6.2 mi Variable 2.3 mph - N/A   Scattered Clouds
2:00 PM 81 °F - 43 °F 17%  in 6 mi Calm Calm - -   Partly Cloudy
2:00 PM 80.6 °F - 42.8 °F 26% 30.04 in 6.2 mi Calm Calm - N/A   Scattered Clouds
3:00 PM 84.2 °F - 46.4 °F 27% 30.01 in 6.2 mi West 1.2 mph - N/A   Partly Cloudy
4:00 PM 82.4 °F - 42.8 °F 25% 30.04 in - WNW 5.8 mph - N/A   Clear
5:00 PM 80.6 °F - 42.8 °F 26% 30.04 in - North 4.6 mph - N/A   Clear
6:00 PM 75.2 °F - 42.8 °F 31% 30.04 in - North 5.8 mph - N/A   Clear
7:00 PM 69.8 °F - 41.0 °F 35% 30.06 in - North 8.1 mph - N/A   Clear
8:00 PM 68.0 °F - 39.2 °F 35% 30.09 in - North 6.9 mph - N/A   Clear
9:00 PM 64.4 °F - 35.6 °F 34% 30.12 in - NNE 6.9 mph - N/A   Clear
10:00 PM 60.8 °F - 41.0 °F 48% 30.12 in - North 5.8 mph - N/A   Clear
11:00 PM 59.0 °F - 41.0 °F 51% 30.12 in - Calm Calm - N/A   Clear